When you browse on this site, cookies collect data to enhance your experience and personalize the content and advertising you see.
Visit our Privacy Policy to learn more. By continuing to use the site, you agree to this use of cookies and data.

Météo par heure à Prutz

Ce jour, 7 Juillet, Mardi

Heure Température Précipitation Vent Pression Humidité
00:00 +7°C° 0 mm 2 m/s 634 mmHg 95%
01:00 +6°C° 0 mm 2 m/s 634 mmHg 96%
02:00 +6°C° 0 mm 2 m/s 634 mmHg 96%
03:00 +6°C° 0 mm 2 m/s 634 mmHg 95%
04:00 +6°C° 0 mm 1 m/s 634 mmHg 94%
05:00 +7°C° 0 mm 1 m/s 635 mmHg 89%
06:00 +8°C° 0 mm 1 m/s 635 mmHg 84%
07:00 +8°C° 0 mm 1 m/s 635 mmHg 79%
08:00 +11°C° 0 mm 1 m/s 636 mmHg 68%
09:00 +13°C° 0 mm 1 m/s 636 mmHg 56%
10:00 +15°C° 0 mm 1 m/s 637 mmHg 44%
11:00 +16°C° 0 mm 1 m/s 637 mmHg 41%
12:00 +18°C° 0 mm 2 m/s 637 mmHg 37%
13:00 +19°C° 0 mm 2 m/s 637 mmHg 33%
14:00 +19°C° 0 mm 2 m/s 637 mmHg 34%
15:00 +19°C° 0 mm 2 m/s 637 mmHg 35%
16:00 +19°C° 0 mm 2 m/s 637 mmHg 35%
17:00 +18°C° 0 mm 2 m/s 637 mmHg 45%
18:00 +17°C° 0 mm 2 m/s 637 mmHg 55%
19:00 +15°C° 0 mm 2 m/s 636 mmHg 65%
20:00 +13°C° 0 mm 1 m/s 636 mmHg 74%
21:00 +11°C° 0 mm 1 m/s 635 mmHg 84%
22:00 +7°C° 0 mm 0 m/s 635 mmHg 93%
23:00 +7°C° 0 mm 0 m/s 634 mmHg 93%

Demain, 8 Juillet, Mercredi

Heure Température Précipitation Vent Pression Humidité
00:00 +7°C° 0 mm 0 m/s 634 mmHg 93%
01:00 +8°C° 0 mm 1 m/s 634 mmHg 93%
02:00 +8°C° 0 mm 1 m/s 634 mmHg 92%
03:00 +8°C° 0 mm 1 m/s 634 mmHg 90%
04:00 +8°C° 0 mm 1 m/s 634 mmHg 89%
05:00 +10°C° 0 mm 1 m/s 635 mmHg 80%
06:00 +12°C° 0 mm 1 m/s 635 mmHg 71%
07:00 +13°C° 0 mm 0 m/s 636 mmHg 62%
08:00 +16°C° 0 mm 1 m/s 637 mmHg 55%
09:00 +19°C° 0 mm 1 m/s 637 mmHg 47%
10:00 +21°C° 0 mm 1 m/s 638 mmHg 39%
11:00 +21°C° 0 mm 2 m/s 638 mmHg 37%
12:00 +23°C° 0 mm 2 m/s 638 mmHg 36%
13:00 +24°C° 0 mm 2 m/s 638 mmHg 35%
14:00 +24°C° 0 mm 2 m/s 638 mmHg 36%
15:00 +23°C° 0 mm 2 m/s 638 mmHg 37%
16:00 +22°C° 0 mm 3 m/s 638 mmHg 38%
17:00 +21°C° 0 mm 2 m/s 638 mmHg 47%
18:00 +19°C° 0 mm 2 m/s 637 mmHg 56%
19:00 +17°C° 0 mm 2 m/s 637 mmHg 65%
20:00 +15°C° 0 mm 1 m/s 637 mmHg 73%
21:00 +13°C° 0 mm 1 m/s 636 mmHg 81%
22:00 +9°C° 0 mm 0 m/s 636 mmHg 89%
23:00 +9°C° 0 mm 0 m/s 636 mmHg 89%

Après-demain, 9 Juillet, Jeudi

Heure Température Précipitation Vent Pression Humidité
00:00 +9°C° 0 mm 0 m/s 636 mmHg 89%
01:00 +10°C° 0 mm 1 m/s 636 mmHg 89%
02:00 +10°C° 0 mm 1 m/s 636 mmHg 88%
03:00 +10°C° 0 mm 1 m/s 636 mmHg 86%
04:00 +10°C° 0 mm 1 m/s 636 mmHg 85%
05:00 +11°C° 0 mm 0 m/s 636 mmHg 77%
06:00 +13°C° 0 mm 0 m/s 637 mmHg 70%
07:00 +15°C° 0 mm 0 m/s 638 mmHg 62%
08:00 +19°C° 0 mm 1 m/s 638 mmHg 55%
09:00 +21°C° 0 mm 1 m/s 639 mmHg 49%
10:00 +22°C° 0 mm 1 m/s 639 mmHg 42%
11:00 +23°C° 0 mm 1 m/s 639 mmHg 40%
12:00 +24°C° 0 mm 1 m/s 640 mmHg 37%
13:00 +25°C° 0 mm 1 m/s 640 mmHg 35%
14:00 +25°C° 0.1 mm 2 m/s 639 mmHg 36%
15:00 +25°C° 0.1 mm 2 m/s 639 mmHg 38%
16:00 +25°C° 0.1 mm 2 m/s 639 mmHg 39%
17:00 +23°C° 0.1 mm 2 m/s 638 mmHg 50%
18:00 +21°C° 0.1 mm 2 m/s 638 mmHg 60%
19:00 +20°C° 0.1 mm 1 m/s 637 mmHg 71%
20:00 +18°C° 0.1 mm 1 m/s 637 mmHg 77%
21:00 +15°C° 0.1 mm 1 m/s 636 mmHg 83%
22:00 +12°C° 0.1 mm 0 m/s 636 mmHg 89%
23:00 +13°C° 0 mm 1 m/s 636 mmHg 88%

10 Juillet, Vendredi

Heure Température Précipitation Vent Pression Humidité
00:00 +13°C° 0 mm 1 m/s 635 mmHg 87%
01:00 +13°C° 0 mm 1 m/s 635 mmHg 86%
02:00 +13°C° 0 mm 1 m/s 635 mmHg 86%
03:00 +12°C° 0 mm 1 m/s 634 mmHg 86%
04:00 +12°C° 0 mm 1 m/s 634 mmHg 86%
05:00 +14°C° 0 mm 1 m/s 635 mmHg 82%
06:00 +16°C° 0 mm 1 m/s 635 mmHg 77%
07:00 +19°C° 0 mm 1 m/s 636 mmHg 72%
08:00 +20°C° 0.1 mm 1 m/s 636 mmHg 64%
09:00 +22°C° 0.1 mm 1 m/s 637 mmHg 56%
10:00 +24°C° 0.1 mm 1 m/s 637 mmHg 47%
11:00 +25°C° 0.3 mm 1 m/s 637 mmHg 46%
12:00 +25°C° 0.3 mm 1 m/s 637 mmHg 45%
13:00 +25°C° 0.3 mm 2 m/s 637 mmHg 44%
14:00 +23°C° 1.4 mm 2 m/s 636 mmHg 57%
15:00 +20°C° 1.4 mm 2 m/s 636 mmHg 70%
16:00 +18°C° 1.4 mm 2 m/s 635 mmHg 84%
17:00 +17°C° 2.4 mm 2 m/s 635 mmHg 88%
18:00 +16°C° 2.4 mm 2 m/s 635 mmHg 92%
19:00 +15°C° 2.4 mm 1 m/s 635 mmHg 97%
20:00 +15°C° 2.3 mm 2 m/s 635 mmHg 97%
21:00 +14°C° 2.3 mm 2 m/s 635 mmHg 97%
22:00 +14°C° 2.3 mm 2 m/s 636 mmHg 97%
23:00 +13°C° 0.4 mm 2 m/s 635 mmHg 98%

11 Juillet, Samedi

Heure Température Précipitation Vent Pression Humidité
00:00 +12°C° 0.4 mm 2 m/s 635 mmHg 98%
01:00 +12°C° 0.4 mm 2 m/s 635 mmHg 98%
02:00 +12°C° 0 mm 2 m/s 635 mmHg 97%
03:00 +10°C° 0 mm 2 m/s 635 mmHg 97%
04:00 +10°C° 0 mm 2 m/s 635 mmHg 97%
05:00 +10°C° 0.1 mm 2 m/s 635 mmHg 97%
06:00 +9°C° 0.1 mm 2 m/s 635 mmHg 97%
07:00 +9°C° 0.1 mm 2 m/s 635 mmHg 96%
08:00 +10°C° 0 mm 2 m/s 635 mmHg 94%
09:00 +12°C° 0 mm 2 m/s 636 mmHg 91%
10:00 +12°C° 0 mm 2 m/s 636 mmHg 88%
11:00 +13°C° 0.1 mm 2 m/s 636 mmHg 85%
12:00 +14°C° 0.1 mm 2 m/s 636 mmHg 82%
13:00 +14°C° 0.1 mm 2 m/s 637 mmHg 79%
14:00 +14°C° 0.1 mm 2 m/s 637 mmHg 79%
15:00 +14°C° 0.1 mm 2 m/s 637 mmHg 79%
16:00 +14°C° 0.1 mm 2 m/s 637 mmHg 78%
17:00 +14°C° 0.1 mm 2 m/s 637 mmHg 81%
18:00 +13°C° 0.1 mm 2 m/s 637 mmHg 84%
19:00 +13°C° 0.1 mm 2 m/s 637 mmHg 87%
20:00 +10°C° 0 mm 2 m/s 637 mmHg 90%
21:00 +10°C° 0 mm 1 m/s 637 mmHg 93%
22:00 +9°C° 0 mm 1 m/s 637 mmHg 96%
23:00 +9°C° 0 mm 1 m/s 637 mmHg 96%

12 Juillet, Dimanche

Heure Température Précipitation Vent Pression Humidité
00:00 +8°C° 0 mm 1 m/s 637 mmHg 95%
01:00 +7°C° 0 mm 0 m/s 636 mmHg 95%
02:00 +6°C° 0 mm 0 m/s 636 mmHg 94%
03:00 +6°C° 0 mm 0 m/s 636 mmHg 94%
04:00 +5°C° 0 mm 0 m/s 636 mmHg 94%
05:00 +7°C° 0 mm 0 m/s 637 mmHg 87%
06:00 +9°C° 0 mm 0 m/s 637 mmHg 80%
07:00 +11°C° 0 mm 0 m/s 638 mmHg 73%
08:00 +14°C° 0 mm 1 m/s 639 mmHg 65%
09:00 +15°C° 0 mm 1 m/s 639 mmHg 57%
10:00 +18°C° 0 mm 1 m/s 640 mmHg 49%
11:00 +20°C° 0 mm 1 m/s 640 mmHg 45%
12:00 +20°C° 0 mm 2 m/s 641 mmHg 42%
13:00 +21°C° 0 mm 2 m/s 641 mmHg 39%
14:00 +21°C° 0 mm 2 m/s 641 mmHg 40%
15:00 +21°C° 0 mm 2 m/s 641 mmHg 41%
16:00 +21°C° 0 mm 2 m/s 640 mmHg 42%
17:00 +20°C° 0 mm 2 m/s 640 mmHg 51%
18:00 +18°C° 0 mm 2 m/s 640 mmHg 60%
19:00 +17°C° 0 mm 2 m/s 639 mmHg 69%
20:00 +14°C° 0 mm 1 m/s 639 mmHg 77%
21:00 +12°C° 0 mm 1 m/s 638 mmHg 85%
22:00 +9°C° 0 mm 0 m/s 637 mmHg 93%
23:00 +10°C° 0 mm 1 m/s 637 mmHg 92%
Voir plus